Weather History for KNSI - November, 2012

Change the Weather History Date:

Friday, November 9, 2012

  Actual Average Record
Temperature  
Mean Temperature 64 °F -  
Max Temperature 69 °F 62 °F 70 °F (2002)
Min Temperature 59 °F 52 °F 45 °F (2011)
Degree Days  
Heating Degree Days 1    
Growing Degree Days 14 (Base 50)    
Moisture  
Dew Point 45 °F    
Average Humidity 49    
Maximum Humidity 60    
Minimum Humidity 42    
Precipitation  
Precipitation 0.00 in - - ()
Sea Level Pressure  
Sea Level Pressure 29.93 in    
Wind  
Wind Speed 16 mph (WNW)    
Max Wind Speed 21 mph    
Max Gust Speed 31 mph    
Visibility 9 miles    
Events      
Averages and records for this station are not official NWS values.
T = Trace of Precipitation, MM = Missing Value Source: NWS Daily Summary

Daily Weather History Graph

Daily Weather History Graph

Search for Another Location

Airport or City:

Trip Planner

Search our weather history database for the weather conditions in past years. The results will help you decide how hot, cold, wet, or windy it might be!

Date:

Astronomy

Nov. 09, 2012 Rise Set
Actual Time 6:23 AM PST 4:59 PM PST
Civil Twilight 5:57 AM PST 5:25 PM PST
Nautical Twilight 5:28 AM PST 5:54 PM PST
Astronomical Twilight 4:58 AM PST 6:24 PM PST
Moon 1:41 AM PST (11/9) 2:03 PM PST (11/9)
Length of Visible Light 11h 27m
Length of Day
10h 35m
Waning Crescent, 22% of the Moon is Illuminated
Nov 9
Waning Crescent
Nov 13
New
Nov 20
First Quarter
Nov 28
Full
Dec 6
Last Quarter

Hourly Weather History & Observations

Time (PST) Temp. Dew Point Humidity Pressure Visibility Wind Dir Wind Speed Gust Speed Precip Events Conditions
12:53 AM 66.0 °F 50.0 °F 56% 29.92 in 10.0 mi WNW 15.0 mph - N/A   Mostly Cloudy
1:53 AM 66.9 °F 48.9 °F 52% 29.91 in 10.0 mi WNW 17.3 mph - N/A   Mostly Cloudy
2:53 AM 68.0 °F 48.9 °F 50% 29.91 in 10.0 mi WNW 11.5 mph - N/A   Overcast
3:53 AM 69.1 °F 48.0 °F 47% 29.91 in 10.0 mi WNW 11.5 mph - N/A   Overcast
4:53 AM 66.9 °F 46.9 °F 49% 29.91 in 10.0 mi WNW 13.8 mph - N/A   Overcast
5:53 AM 59.0 °F 45.0 °F 60% 29.92 in 7.0 mi WNW 12.7 mph - N/A   Scattered Clouds
6:44 AM 59.0 °F 42.8 °F 55% 29.94 in 7.0 mi WNW 11.5 mph - N/A   Mostly Cloudy
6:53 AM 59.0 °F 43.0 °F 55% 29.93 in 7.0 mi WNW 12.7 mph - N/A   Mostly Cloudy
7:53 AM 60.8 °F 44.1 °F 54% 29.94 in 7.0 mi West 17.3 mph 24.2 mph N/A   Scattered Clouds
8:53 AM 62.6 °F 43.0 °F 49% 29.95 in 7.0 mi West 16.1 mph 25.3 mph N/A   Scattered Clouds
9:53 AM 62.6 °F 44.1 °F 51% 29.95 in 7.0 mi West 17.3 mph 27.6 mph N/A   Scattered Clouds
10:53 AM 62.8 °F 45.0 °F 52% 29.95 in 7.0 mi WNW 17.3 mph - N/A   Mostly Cloudy
11:53 AM 62.6 °F 44.1 °F 51% 29.94 in 7.0 mi West 19.6 mph - N/A   Scattered Clouds
12:53 PM 62.6 °F 44.1 °F 51% 29.91 in 7.0 mi WNW 20.7 mph 31.1 mph N/A   Scattered Clouds
1:53 PM 63.3 °F 43.0 °F 47% 29.91 in 7.0 mi WNW 18.4 mph 28.8 mph N/A   Scattered Clouds
2:53 PM 69.1 °F 45.0 °F 42% 29.91 in 10.0 mi WNW 19.6 mph 26.5 mph N/A   Partly Cloudy
3:53 PM 68.0 °F 44.1 °F 42% 29.91 in 10.0 mi West 19.6 mph 25.3 mph N/A   Partly Cloudy
4:53 PM 66.0 °F 45.0 °F 47% 29.91 in 10.0 mi West 11.5 mph - N/A   Partly Cloudy
5:53 PM 66.0 °F 45.0 °F 47% 29.92 in 10.0 mi WNW 13.8 mph - N/A   Partly Cloudy
6:53 PM 64.0 °F 45.0 °F 50% 29.94 in 10.0 mi WNW 18.4 mph 24.2 mph N/A   Scattered Clouds
7:53 PM 64.0 °F 42.1 °F 45% 29.95 in 10.0 mi WNW 20.7 mph 26.5 mph N/A   Scattered Clouds
8:53 PM 63.0 °F 41.0 °F 45% 29.96 in 10.0 mi WNW 18.4 mph 27.6 mph N/A   Scattered Clouds
9:53 PM 63.0 °F 42.1 °F 46% 29.97 in 10.0 mi WNW 20.7 mph 26.5 mph N/A   Partly Cloudy
10:53 PM 64.0 °F 43.0 °F 46% 29.97 in 10.0 mi WNW 15.0 mph 24.2 mph N/A   Mostly Cloudy
11:53 PM 64.0 °F 43.0 °F 46% 29.97 in 10.0 mi WNW 15.0 mph - N/A   Mostly Cloudy